Weather History for Bellingham, WA

Change the Weather History Date:

Wednesday, November 30, 2011

  Actual Average Record
Temperature  
Mean Temperature 38 °F 40 °F  
Max Temperature 46 °F 46 °F 58 °F (1958)
Min Temperature 30 °F 34 °F 18 °F (1952)
Degree Days  
Heating Degree Days 27 25  
Month to date heating degree days 653  
Cooling Degree Days 0 0  
Month to date cooling degree days 0  
Year to date cooling degree days 42  
Moisture  
Dew Point 37 °F    
Average Humidity 88    
Maximum Humidity 100    
Minimum Humidity 68    
Precipitation  
Precipitation 0.00 in 0.19 in 1.26 in (1999)
Month to date precipitation 5.80  
Year to date precipitation 31.61  
Sea Level Pressure  
Sea Level Pressure 30.61 in    
Wind  
Wind Speed 4 mph (NNW)    
Max Wind Speed 10 mph    
Max Gust Speed -    
Visibility 9 miles    
Events      
T = Trace of Precipitation, MM = Missing Value Source: NWS Daily Summary

Daily Weather History Graph

Daily Weather History Graph

Search for Another Location

Airport:

Trip Planner

Search our weather history database for the weather conditions in past years. The results will help you decide how hot, cold, wet, or windy it might be!

Date:

Astronomy

Nov. 30, 2011 Rise Set
Actual Time 7:40 AM PST 4:16 PM PST
Civil Twilight 7:04 AM PST 4:52 PM PST
Nautical Twilight 6:24 AM PST 5:32 PM PST
Astronomical Twilight 5:46 AM PST 6:10 PM PST
Moon 11:45 AM PST (11/30) 10:37 PM PST (11/30)
Length of Visible Light 9h 48m
Length of Day
8h 36m
Waxing Crescent, 34% of the Moon is Illuminated
Nov 30
Waxing Crescent
Dec 2
First Quarter
Dec 10
Full
Dec 17
Last Quarter
Dec 24
New

Hourly Weather History & Observations

Time (PST) Temp. Windchill Dew Point Humidity Pressure Visibility Wind Dir Wind Speed Gust Speed Precip Events Conditions
12:53 AM 39.9 °F 35.1 °F 37.9 °F 93% 30.31 in 10.0 mi North 6.9 mph - N/A   Overcast
1:53 AM 39.9 °F 35.8 °F 37.9 °F 93% 30.36 in 10.0 mi NNW 5.8 mph - N/A   Overcast
2:53 AM 39.9 °F 37.8 °F 37.9 °F 93% 30.40 in 10.0 mi North 3.5 mph - 0.00 in   Overcast
3:10 AM 39.2 °F - 37.4 °F 93% 30.37 in 10.0 mi Calm Calm - N/A   Overcast
3:22 AM 39.2 °F - 37.4 °F 93% 30.38 in 10.0 mi Calm Calm - N/A   Overcast
3:53 AM 39.0 °F 35.7 °F 37.9 °F 96% 30.43 in 10.0 mi NW 4.6 mph - N/A   Overcast
4:53 AM 39.9 °F - 37.9 °F 93% 30.48 in 10.0 mi Calm Calm - N/A   Overcast
5:15 AM 39.2 °F - 37.4 °F 93% 30.45 in 10.0 mi Calm Calm - N/A   Overcast
5:39 AM 39.2 °F - 37.4 °F 93% 30.46 in 10.0 mi Calm Calm - N/A   Overcast
5:53 AM 39.9 °F 37.8 °F 37.9 °F 93% 30.49 in 10.0 mi SSE 3.5 mph - N/A   Overcast
6:53 AM 41.0 °F - 39.0 °F 93% 30.52 in 9.0 mi Calm Calm - 0.00 in   Overcast
7:09 AM 41.0 °F - 39.2 °F 93% 30.50 in 10.0 mi Calm Calm - N/A   Overcast
7:18 AM 39.2 °F - 37.4 °F 93% 30.51 in 9.0 mi Calm Calm - N/A   Overcast
7:53 AM 39.2 °F - 39.2 °F 100% 30.52 in 8.0 mi Calm Calm - N/A   Overcast
8:00 AM 39.2 °F - 37.4 °F 93% 30.52 in 7.0 mi Calm Calm - N/A   Overcast
8:53 AM 39.9 °F - 39.0 °F 97% 30.60 in 10.0 mi Calm Calm - N/A   Mostly Cloudy
9:04 AM 41.0 °F - 39.2 °F 93% 30.58 in - North - - N/A   Unknown
9:42 AM 42.8 °F 39.3 °F 39.2 °F 87% 30.60 in 10.0 mi North 5.8 mph - N/A   Mostly Cloudy
9:53 AM 41.0 °F 38.0 °F 37.9 °F 89% 30.63 in 10.0 mi North 4.6 mph - N/A   Mostly Cloudy
10:02 AM 42.8 °F 40.1 °F 39.2 °F 87% 30.61 in 10.0 mi North 4.6 mph - N/A   Partly Cloudy
10:53 AM 45.0 °F 41.8 °F 39.0 °F 80% 30.66 in 10.0 mi North 5.8 mph - N/A   Partly Cloudy
11:14 AM 44.6 °F 40.7 °F 39.2 °F 81% 30.65 in 10.0 mi NNW 6.9 mph - N/A   Mostly Cloudy
11:50 AM 44.6 °F 39.2 °F 39.2 °F 81% 30.67 in 10.0 mi NNW 10.4 mph - N/A   Mostly Cloudy
11:53 AM 45.0 °F 40.1 °F 39.0 °F 80% 30.70 in 10.0 mi North 9.2 mph - N/A   Mostly Cloudy
12:24 PM 46.4 °F 41.9 °F 39.2 °F 76% 30.69 in 10.0 mi North 9.2 mph - N/A   Scattered Clouds
12:53 PM 46.9 °F - 37.9 °F 71% 30.71 in 10.0 mi North 8.1 mph - N/A   Scattered Clouds
1:53 PM 46.9 °F - 37.0 °F 68% 30.71 in 10.0 mi North 6.9 mph - N/A   Partly Cloudy
2:53 PM 46.9 °F - 37.0 °F 68% 30.72 in 10.0 mi North 5.8 mph - N/A   Clear
3:53 PM 44.1 °F 40.1 °F 37.0 °F 76% 30.75 in 10.0 mi North 6.9 mph - N/A   Clear
4:53 PM 41.0 °F 37.1 °F 36.0 °F 82% 30.76 in 10.0 mi NNW 5.8 mph - N/A   Clear
5:53 PM 42.1 °F 37.7 °F 36.0 °F 79% 30.77 in 10.0 mi WNW 6.9 mph - N/A   Clear
7:53 PM 39.0 °F 34.8 °F 35.1 °F 86% 30.79 in 10.0 mi NNW 5.8 mph - N/A   Clear
8:53 PM 35.6 °F - 32.0 °F 87% 30.76 in 10.0 mi Calm Calm - N/A   Clear
9:53 PM 32.0 °F - 30.0 °F 92% 30.83 in 7.0 mi Calm Calm - N/A   Clear
10:53 PM 30.9 °F - 30.0 °F 96% 30.84 in 7.0 mi Calm Calm - N/A   Clear
11:04 PM 30.2 °F - 28.4 °F 93% 30.81 in 1.8 mi Calm Calm - N/A   Partly Cloudy
11:16 PM 30.2 °F - 28.4 °F 93% 30.80 in 5.0 mi Calm Calm - N/A   Clear
11:53 PM 30.0 °F - 28.9 °F 96% 30.83 in 6.0 mi Calm Calm - N/A   Clear